CW7283 Weather Reports


time (UTC)temp
F
wind
direction
speed
knots
gust
knots
rain 1hr
in
rain 24hr
in
rain mn
in
humidity
%
barometer
mb
20260508134838 40 225 0.0 0.0 0.00 0.09 0.01 86 1014.2
20260508133339 38 230 0.0 0.0 0.00 0.09 0.01 89 1014.2
20260508131858 36 237 0.0 0.0 0.00 0.09 0.01 91 1014.2
20260508130342 35 237 0.0 0.0 0.00 0.09 0.01 92 1014.2
20260508124837 34 238 0.0 0.0 0.00 0.09 0.01 91 1014.1
20260508123328 34 238 0.0 0.0 0.00 0.09 0.01 92 1013.9
20260508121849 34 238 0.0 0.0 0.00 0.09 0.01 92 1013.7
20260508120352 34 238 0.0 0.0 0.00 0.09 0.01 92 1013.5
20260508114835 34 238 0.0 0.0 0.00 0.09 0.01 91 1013.6
20260508113402 34 239 0.0 0.0 0.00 0.09 0.01 90 1013.5
20260508111840 34 240 0.0 0.0 0.00 0.09 0.01 90 1013.5
20260508110326 35 240 0.0 0.0 0.01 0.09 0.01 90 1013.3
20260508104834 35 240 0.0 0.0 0.01 0.09 0.01 90 1013.4
20260508103402 35 240 0.0 0.0 0.01 0.09 0.01 89 1013.4
20260508101835 36 240 0.0 0.0 0.01 0.09 0.01 89 1013.4
20260508100349 36 240 0.0 0.0 0.00 0.08 0.00 90 1013.1
20260508094827 35 240 0.0 0.0 0.00 0.08 0.00 90 1013.1
20260508093352 36 222 0.0 0.0 0.00 0.08 0.00 91 1013.1
20260508091839 36 232 0.0 0.0 0.00 0.08 0.00 90 1013.1
20260508090333 36 232 0.0 0.0 0.00 0.08 0.00 90 1013.2
20260508084826 36 226 0.0 0.0 0.00 0.08 0.00 91 1013.2
20260508083344 36 248 0.0 0.9 0.00 0.08 0.00 92 1013.2
20260508081857 37 205 0.0 0.0 0.00 0.08 0.00 92 1013.4
20260508080351 37 241 0.0 0.0 0.00 0.08 0.00 93 1013.6
20260508074853 37 241 0.0 0.0 0.00 0.08 0.00 93 1013.6
20260508073354 38 241 0.0 0.0 0.00 0.08 0.00 91 1013.7
20260508071840 39 241 0.0 0.0 0.00 0.08 0.00 91 1013.6
20260508070343 39 241 0.0 0.0 0.00 0.08 0.00 90 1013.7
20260508064844 40 241 0.0 0.0 0.00 0.08 0.00 90 1013.6
20260508063344 41 241 0.0 0.0 0.00 0.08 0.00 90 1013.6
20260508061836 41 234 0.0 0.0 0.00 0.08 0.00 90 1013.6
20260508060330 42 235 0.0 0.0 0.00 0.08 0.00 88 1013.5
20260508054843 42 235 0.0 0.0 0.00 0.08 0.08 88 1013.3
20260508053400 43 235 0.0 0.0 0.00 0.08 0.08 87 1013.6
20260508051839 44 240 0.0 0.0 0.00 0.08 0.08 85 1013.6
20260508050356 44 244 0.0 0.0 0.00 0.08 0.08 85 1013.7
20260508044849 45 240 0.0 1.7 0.00 0.08 0.08 84 1013.7
20260508043340 45 339 0.0 0.0 0.00 0.08 0.08 84 1013.6
20260508041839 45 5 0.0 0.0 0.00 0.08 0.08 83 1013.9
20260508040343 45 5 0.0 3.5 0.00 0.08 0.08 83 1014.1
20260508034827 46 9 0.0 0.0 0.00 0.08 0.08 80 1013.8
20260508033353 46 132 0.0 0.0 0.00 0.08 0.08 80 1013.5
20260508031826 46 141 0.0 0.0 0.00 0.08 0.08 78 1013.2
20260508030356 46 234 0.0 1.7 0.00 0.08 0.08 78 1013.0
20260508024824 46 216 0.0 5.2 0.01 0.08 0.08 80 1013.0
20260508023326 45 212 0.0 2.6 0.01 0.08 0.08 83 1013.0
20260508021826 46 238 1.7 3.5 0.01 0.08 0.08 83 1013.0
20260508020326 48 323 0.0 6.1 0.01 0.08 0.08 76 1013.0
20260508014923 48 276 1.7 8.7 0.00 0.07 0.07 72 1012.9
20260508013405 50 294 1.7 9.6 0.00 0.07 0.07 69 1012.6
20260508011858 53 332 2.6 7.0 0.00 0.07 0.07 57 1012.3
20260508010356 55 348 0.0 1.7 0.00 0.07 0.07 59 1011.8
20260508004837 56 277 0.0 1.7 0.00 0.07 0.07 58 1011.6
20260508003328 56 302 0.0 1.7 0.00 0.07 0.07 58 1011.3
20260508001915 57 342 0.0 1.7 0.00 0.07 0.07 54 1011.2
20260508000339 57 274 0.0 1.7 0.00 0.07 0.07 51 1011.1
20260507234828 58 291 0.0 2.6 0.00 0.07 0.07 52 1011.1
20260507233325 57 294 0.0 3.5 0.00 0.07 0.07 55 1011.1
20260507231859 58 355 0.0 3.5 0.00 0.07 0.07 55 1011.1
20260507230340 57 302 0.0 3.5 0.00 0.07 0.07 54 1011.1
20260507224843 57 312 0.0 4.3 0.00 0.07 0.07 57 1011.2
20260507223353 57 313 0.9 3.5 0.00 0.07 0.07 54 1011.2
20260507221846 58 273 0.0 2.6 0.00 0.07 0.07 55 1011.4
20260507220331 58 269 0.9 5.2 0.00 0.07 0.07 55 1011.7
20260507214831 57 312 0.9 7.0 0.00 0.07 0.07 56 1011.8
20260507213417 58 44 0.0 6.1 0.00 0.07 0.07 57 1011.8
20260507211841 55 292 0.9 4.3 0.00 0.07 0.07 60 1012.0
20260507210330 54 242 0.9 7.8 0.00 0.07 0.07 66 1012.4
20260507204843 52 279 0.9 6.1 0.00 0.07 0.07 73 1012.4
20260507203351 50 325 1.7 9.6 0.00 0.07 0.07 74 1012.4
20260507201853 50 355 2.6 8.7 0.00 0.07 0.07 74 1012.4
20260507200341 50 348 1.7 5.2 0.00 0.07 0.07 75 1012.3
20260507194838 50 290 1.7 7.0 0.00 0.07 0.07 74 1012.4
20260507193341 51 271 1.7 10.4 0.00 0.07 0.07 73 1012.4
20260507191856 51 279 0.9 7.8 0.00 0.07 0.07 75 1012.4
20260507190358 51 355 1.7 5.2 0.01 0.07 0.07 74 1012.4
20260507184852 50 335 0.9 5.2 0.01 0.07 0.07 78 1012.4
20260507183339 48 312 0.9 3.5 0.01 0.07 0.07 83 1012.3
20260507181826 47 271 0.9 7.0 0.01 0.07 0.07 82 1012.3
20260507180404 49 20 0.9 7.8 0.00 0.06 0.06 79 1012.3
20260507174834 49 340 0.0 2.6 0.02 0.06 0.06 86 1012.0
20260507173334 46 257 0.0 2.6 0.02 0.06 0.06 89 1012.0
20260507171849 46 212 0.0 5.2 0.03 0.06 0.06 88 1011.9
20260507170346 45 343 0.9 4.3 0.04 0.06 0.06 87 1011.8
20260507164828 45 343 0.0 7.8 0.02 0.04 0.04 88 1011.8
20260507163326 46 273 1.7 6.1 0.02 0.04 0.04 87 1011.8
20260507161843 46 272 1.7 5.2 0.02 0.03 0.03 83 1011.4
20260507160343 48 255 0.9 10.4 0.01 0.02 0.02 82 1011.3
20260507154844 48 339 4.3 7.8 0.02 0.02 0.02 81 1011.2
20260507153332 45 267 0.0 1.7 0.02 0.02 0.02 87 1011.2
20260507151843 45 355 0.0 0.0 0.01 0.01 0.01 80 1011.2
20260507150332 45 18 0.0 0.0 0.01 0.01 0.01 76 1010.5
20260507144905 45 331 0.0 1.7 0.00 0.00 0.00 72 1010.4
20260507143335 45 24 0.0 1.7 0.00 0.00 0.00 71 1010.3
20260507141833 44 157 0.0 0.9 0.00 0.00 0.00 69 1010.1
20260507140401 42 146 0.0 0.9 0.00 0.00 0.00 73 1010.0